Chamberlain, SD

4:13 PM CST on January 17, 2018 (GMT -0600)
Chamberlain

Weather History for K9V9 - February, 2014

Change the Weather History Date:

Tuesday, February 18, 2014

  Actual Average Record
Temperature  
Mean Temperature 41 °F -  
Max Temperature 52 °F 35 °F 64 °F (2016)
Min Temperature 28 °F 16 °F -13 °F (2006)
Degree Days  
Heating Degree Days 24    
Moisture  
Dew Point 26 °F    
Average Humidity 58    
Maximum Humidity 79    
Minimum Humidity 37    
Precipitation  
Precipitation 0.00 in - - ()
Sea Level Pressure  
Sea Level Pressure 29.75 in    
Wind  
Wind Speed 12 mph (NW)    
Max Wind Speed 26 mph    
Max Gust Speed 38 mph    
Averages and records for this station are not official NWS values.
T = Trace of Precipitation, MM = Missing Value Source: NWS Daily Summary

Daily Weather History Graph

Daily Weather History Graph

Search for Another Location

Airport or City:

Trip Planner

Search our weather history database for the weather conditions in past years. The results will help you decide how hot, cold, wet, or windy it might be!

Date:

Astronomy

Feb. 18, 2014 Rise Set
Actual Time 7:31 AM CST 6:11 PM CST
Civil Twilight 7:02 AM CST 6:40 PM CST
Nautical Twilight 6:28 AM CST 7:14 PM CST
Astronomical Twilight 5:55 AM CST 7:47 PM CST
Moon 10:15 PM CST (2/18) 8:56 AM CST (2/18)
Length of Visible Light 11h 38m
Length of Day
10h 39m
Waning Gibbous, 87% of the Moon is Illuminated
Feb 18
Waning Gibbous
Feb 22
Last Quarter
Mar 1
New
Mar 8
First Quarter
Mar 16
Full

Hourly Weather History & Observations

Time (CST) Temp. Windchill Dew Point Humidity Pressure Visibility Wind Dir Wind Speed Gust Speed Precip Events Conditions
12:52 AM 39.0 °F 31.8 °F 24.1 °F 55% 29.61 in - WSW 11.5 mph - N/A   Unknown
1:52 AM 37.9 °F 30.0 °F 24.1 °F 57% 29.60 in - WSW 12.7 mph - N/A   Unknown
2:52 AM 37.0 °F 31.0 °F 24.1 °F 59% 29.60 in - WNW 8.1 mph - N/A   Unknown
3:52 AM 37.0 °F 31.0 °F 23.0 °F 57% 29.59 in - NW 8.1 mph - N/A   Unknown
4:52 AM 36.0 °F 28.5 °F 23.0 °F 59% 29.58 in - WNW 10.4 mph - N/A   Unknown
5:52 AM 34.0 °F 28.0 °F 23.0 °F 64% 29.59 in - WNW 6.9 mph - N/A   Unknown
6:52 AM 34.0 °F 26.6 °F 23.0 °F 64% 29.61 in - NW 9.2 mph - N/A   Unknown
7:52 AM 35.1 °F 26.9 °F 23.0 °F 61% 29.63 in - WNW 11.5 mph - N/A   Unknown
8:52 AM 37.9 °F 30.9 °F 24.1 °F 57% 29.67 in - NW 10.4 mph - N/A   Unknown
9:52 AM 42.1 °F 36.1 °F 25.0 °F 51% 29.67 in - WNW 10.4 mph - N/A   Unknown
10:52 AM 48.0 °F - 27.0 °F 44% 29.70 in - North 9.2 mph 17.3 mph N/A   Unknown
11:52 AM 50.0 °F - 28.0 °F 43% 29.73 in - NW 16.1 mph 25.3 mph N/A   Unknown
12:52 PM 46.9 °F - 28.9 °F 50% 29.76 in - NW 18.4 mph 24.2 mph N/A   Unknown
1:52 PM 52.0 °F - 28.0 °F 40% 29.75 in - NW 19.6 mph 34.5 mph N/A   Unknown
2:52 PM 52.0 °F - 26.1 °F 37% 29.76 in - NW 26.5 mph 38.0 mph N/A   Unknown
3:52 PM 48.9 °F - 28.9 °F 46% 29.81 in - NW 23.0 mph 33.4 mph N/A   Unknown
4:52 PM 46.0 °F 39.0 °F 30.0 °F 54% 29.86 in - NW 17.3 mph 24.2 mph N/A   Unknown
5:52 PM 43.0 °F 36.0 °F 30.9 °F 62% 29.89 in - NNW 13.8 mph 19.6 mph N/A   Unknown
6:52 PM 39.0 °F 32.8 °F 30.0 °F 70% 29.91 in - NNW 9.2 mph - N/A   Unknown
7:52 PM 36.0 °F 30.3 °F 28.0 °F 73% 29.94 in - NW 6.9 mph - N/A   Unknown
8:52 PM 30.9 °F 23.5 °F 25.0 °F 79% 29.94 in - West 8.1 mph - N/A   Unknown
9:52 PM 33.1 °F 26.1 °F 26.1 °F 75% 29.94 in - West 8.1 mph - N/A   Unknown
10:52 PM 32.0 °F 24.2 °F 23.0 °F 69% 29.94 in - West 9.2 mph - N/A   Unknown
11:52 PM 28.9 °F 19.8 °F 21.0 °F 72% 29.93 in - WNW 10.4 mph - N/A   Unknown